8,
Avoca, PA
on Wednesday, March 4, 2015

Wednesday
Previous Day Next Day
Daily Summary
 ActualAverageRecord
Temperature
Mean Temperature °F 33°F  
Max Temperature 37°F 42°F 68°F (1974)
Min Temperature 30°F 24°F 0°F (1943)
Degree Days
Heating Degree Days 32 32  
Month to date heating degree days 130  
Since 1 July heating degree days 4736  
Cooling Degree Days 0 0  
Month to date cooling degree days 0  
Year to date cooling degree days 0  
Moisture
Dew Point 29°F   
Average Humidity    
Maximum Humidity 89    
Minimum Humidity 82    
Precipitation
Precipitation 0.02 in 0.07 in 1.09 in (1917)
Month to date precipitation 0.28  
Year to date precipitation 4.68  
Wind
Wind Speed 5 mph   
Max Wind Speed 10 mph   
Max Gust Speed mph   
Visibility 3.2 miles   
Events Rain   

Key: T is trace of precipitation, MM is missing value
Source: Averaged Metar Reports
Time(EST)TemperatureDew PointHumidity Pressure Visibility Wind DirectionWind SpeedGust SpeedPrecipitationEvents Conditions
12:50 AM 30.2°F 26.6°F 86% 29.75 in 5.0 miles West 6.9 mph - N/A   Overcast
12:54 AM 30.0°F 27.0°F 88% 29.77 in 5.0 miles WSW 6.9 mph - N/A   Overcast
1:54 AM 30.0°F 27.0°F 88% 29.74 in 4.0 miles SW 4.6 mph - N/A   Overcast
2:17 AM 30.0°F 27.0°F 88% 29.72 in 4.0 miles SW 6.9 mph - N/A   Overcast
2:31 AM 30.0°F 27.0°F 88% 29.73 in 4.0 miles Calm Calm - N/A   Overcast
2:54 AM 30.9°F 27.0°F 85% 29.76 in 4.0 miles NNW 3.5 mph - N/A   Overcast
3:40 AM 30.9°F 26.1°F 82% 29.73 in 4.0 miles Calm Calm - N/A   Haze
3:54 AM 30.9°F 27.0°F 85% 29.78 in 4.0 miles Calm Calm - N/A   Overcast
4:54 AM 32.0°F 28.0°F 85% 29.80 in 4.0 miles SW 4.6 mph - 0.01 in   Overcast
5:54 AM 32.0°F 28.9°F 88% 29.81 in 3.0 miles SSW 4.6 mph - 0.01 in   Overcast
6:23 AM 33.1°F 28.9°F 85% 29.79 in 3.0 miles SSW 6.9 mph - 0.01 in Rain Light Freezing Rain
6:26 AM 33.1°F 28.9°F 85% 29.78 in 3.0 miles SSW 6.9 mph - 0.01 in Rain Light Freezing Rain
6:41 AM 33.1°F 28.9°F 85% 29.79 in 3.0 miles SSW 8.1 mph - 0.02 in Rain Light Freezing Rain
7:04 AM 33.1°F 30.0°F 89% 29.78 in 2.5 miles SSW 8.1 mph - 0.00 in Rain Light Rain
7:44 AM 34.0°F 30.0°F 85% 29.81 in 3.0 miles SW 6.9 mph - 0.00 in   Overcast
7:54 AM 34.0°F 30.0°F 85% 29.83 in 3.0 miles SW 8.1 mph - 0.00 in   Overcast
8:36 AM 35.1°F 30.9°F 85% 29.82 in 2.5 miles SW 8.1 mph - N/A   Overcast
8:54 AM 34.0°F 30.9°F 89% 29.86 in 1.8 miles WSW 9.2 mph - N/A   Overcast
9:09 AM 34.0°F 30.9°F 89% 29.84 in 1.5 miles WSW 6.9 mph - N/A   Overcast
9:25 AM 36.0°F 32.0°F 86% 29.83 in 2.5 miles Variable 5.8 mph - N/A   Overcast
9:37 AM 36.0°F 32.0°F 86% 29.84 in 3.0 miles WSW 9.2 mph - N/A   Overcast
9:51 AM 35.6°F 32.0°F 87% 29.84 in 2.5 miles WSW 9.2 mph - N/A   Overcast
9:54 AM 36.0°F 32.0°F 86% 29.87 in 2.5 miles SW 8.1 mph - N/A   Overcast
10:20 AM 37.0°F 32.0°F 82% 29.87 in 3.0 miles SW 10.4 mph - N/A   Haze
10:54 AM 37.0°F 33.1°F 86% 29.88 in 3.0 miles SW 8.1 mph - N/A   Mostly Cloudy
Astronomy
Sunrise:06:33 AM (EST) Moon Rise:05:12 PM (EST)
Sunset:05:56 PM (EST) Moon Set:05:45 AM (EST)
Moon Phase
Mar. 04 Mar. 05 Mar. 13 Mar. 20 Mar. 27

Copyright © 2015 The Weather Underground, Inc.
8,